Location: Larrial
(48.2758°N, 4.5331°W)
Time: 00:49:59
(UTC+00:00)

XW-2F - Pass Details

Date: 04 December 2021
Orbit: 495 x 515 km, 97.5° (Epoch: 16 January)

Event Time Altitude Azimuth Distance (km) Brightness Sun altitude
Rises 17:46:39 0° 174° (S) 2,600 ? -13.0°
Reaches altitude 10° 17:48:44 10° 177° (S) 1,723 ? -13.3°
Maximum altitude 17:52:24 62° 259° (WSW) 583 ? -13.9°
Drops below altitude 10° 17:56:09 10° 341° (NNW) 1,750 ? -14.5°
Sets 17:58:17 0° 345° (NNW) 2,645 ? -14.8°
